FW1313 Weather Reports


time (UTC)temp
C
wind
direction
speed
KPH
gust
KPH
rain 1hr
cm
rain 24hr
cm
rain mn
cm
humidity
%
barometer
mb
20260507080359 12 347 0.0 0.0 0.00 0.00 0.00 57 1020.2
20260507073359 11 353 0.0 0.0 0.00 0.00 0.00 56 1020.4
20260507070359 11 341 0.0 0.0 0.00 0.00 0.00 48 1020.7
20260507063359 11 353 0.0 0.0 0.00 0.00 0.00 44 1021.0
20260507060359 11 340 0.0 0.0 0.00 0.00 0.00 48 1021.2
20260507053359 11 340 0.0 0.0 0.00 0.00 0.00 56 1021.2
20260507050359 12 356 0.0 0.0 0.00 0.00 0.00 41 1021.3
20260507043359 12 356 0.0 0.0 0.00 0.00 0.00 45 1021.1
20260507040359 11 355 0.0 0.0 0.00 0.00 0.00 58 1020.6
20260507033359 12 355 0.0 0.0 0.00 0.00 0.00 55 1020.4
20260507030359 12 308 0.0 0.0 0.00 0.00 0.00 52 1019.9
20260507023359 12 311 0.0 0.0 0.00 0.00 0.00 55 1019.4
20260507020359 11 294 0.0 0.0 0.00 0.00 0.00 77 1019.1
20260507013359 12 227 0.0 0.0 0.00 0.00 0.00 73 1018.8
20260507010359 13 270 0.0 0.0 0.00 0.00 0.00 70 1018.5
20260507003359 13 211 0.0 0.0 0.00 0.00 0.00 67 1018.1
20260507000359 14 276 0.0 0.0 0.00 0.00 0.00 68 1017.6
20260506233359 14 197 0.0 0.0 0.00 0.00 0.00 67 1017.2
20260506230359 15 153 0.0 1.6 0.00 0.00 0.00 66 1017.2
20260506223359 14 316 0.0 4.8 0.00 0.00 0.00 67 1017.2
20260506220402 15 203 0.0 1.6 0.00 0.00 0.00 65 1017.2
20260506213359 14 298 0.0 1.6 0.00 0.00 0.00 66 1017.0
20260506210359 16 311 0.0 3.2 0.00 0.00 0.00 64 1016.9
20260506203359 15 322 0.0 0.0 0.00 0.00 0.00 64 1016.4
20260506200359 16 307 0.0 1.6 0.00 0.00 0.00 57 1016.3
20260506193402 15 197 0.0 0.0 0.00 0.00 0.00 58 1016.1
20260506190359 15 44 0.0 0.0 0.00 0.00 0.00 51 1016.0
20260506183359 13 266 0.0 0.0 0.00 0.00 0.00 54 1015.8
20260506180359 13 312 0.0 0.0 0.00 0.00 0.00 56 1015.4
20260506173359 11 328 0.0 1.6 0.00 0.00 0.00 59 1014.7
20260506170359 10 329 0.0 0.0 0.00 0.00 0.00 72 1014.4
20260506163359 8 294 0.0 1.6 0.00 0.03 0.00 94 1014.2
20260506160359 7 271 0.0 0.0 0.00 0.08 0.00 94 1013.9
20260506153359 6 325 0.0 0.0 0.00 0.10 0.00 94 1013.6
20260506150359 6 293 0.0 0.0 0.00 0.13 0.00 94 1013.5
20260506143359 5 359 0.0 0.0 0.00 0.18 0.00 94 1013.2
20260506140359 4 347 0.0 0.0 0.00 0.23 0.00 95 1012.9
20260506133359 3 37 0.0 0.0 0.00 0.30 0.00 95 1012.7
20260506130359 3 24 0.0 0.0 0.00 0.41 0.00 95 1012.6
20260506123359 3 30 0.0 0.0 0.00 0.46 0.00 95 1012.4
20260506120402 2 32 0.0 0.0 0.00 0.48 0.00 95 1012.3
20260506113359 2 30 0.0 0.0 0.00 0.48 0.00 95 1012.1
20260506110359 3 37 0.0 0.0 0.00 0.48 0.00 95 1012.1
20260506103359 3 41 0.0 0.0 0.00 0.48 0.00 95 1012.1
20260506100359 2 349 0.0 0.0 0.00 0.48 0.00 95 1012.1
20260506093359 2 343 0.0 0.0 0.00 0.48 0.00 95 1012.1
20260506090359 2 243 0.0 0.0 0.00 0.48 0.00 95 1012.4
20260506083359 1 355 0.0 0.0 0.00 0.48 0.00 95 1012.7